This is the latest recevied weather packets stored in our database for station/object KO4APQ. If no packets are shown the sender has not sent any weather packets the latest 10 day(s).
| Time | Temp. | Humidity | Pressure | Rain* | Wind** | Luminosity | Snow |
|---|---|---|---|---|---|---|---|
| 1777722261 | 12.22° C | 95% | 1013 hPa | 0 mm | - | 32 W/m² | - |
| 1777721958 | 12.22° C | 95% | 1013 hPa | 0 mm | - | 19 W/m² | - |
| 1777721656 | 12.22° C | 95% | 1013.2 hPa | 0 mm | - | 14 W/m² | - |
| 1777721354 | 12.22° C | 95% | 1012.8 hPa | 0 mm | - | 12 W/m² | - |
| 1777721051 | 12.22° C | 95% | 1012.8 hPa | 0 mm | - | 13 W/m² | - |
| 1777720749 | 12.22° C | 95% | 1012.3 hPa | 0 mm | - | 11 W/m² | - |
| 1777720445 | 12.22° C | 95% | 1012.2 hPa | 0 mm | - | 11 W/m² | - |
| 1777720143 | 12.22° C | 95% | 1012.2 hPa | 0 mm | - | 8 W/m² | - |
| 1777719841 | 12.22° C | 95% | 1012.3 hPa | 0 mm | - | 5 W/m² | - |
| 1777719538 | 12.22° C | 95% | 1012.6 hPa | 0 mm | - | 4 W/m² | - |
| 1777719234 | 12.22° C | 95% | 1012 hPa | 0 mm | - | 5 W/m² | - |
| 1777718933 | 12.22° C | 95% | 1011.6 hPa | 0 mm | - | 4 W/m² | - |
| 1777718630 | 12.22° C | 95% | 1011.5 hPa | 0 mm | - | 3 W/m² | - |
| 1777718327 | 12.22° C | 95% | 1011.7 hPa | 0 mm | - | 1 W/m² | - |
| 1777718024 | 12.22° C | 96% | 1011.9 hPa | 0 mm | - | 0 W/m² | - |
| 1777717721 | 12.22° C | 95% | 1012.3 hPa | 0 mm | - | 0 W/m² | - |
| 1777717418 | 12.22° C | 95% | 1012.7 hPa | 0 mm | - | 0 W/m² | - |
| 1777717116 | 12.22° C | 95% | 1012.3 hPa | 0 mm | - | 0 W/m² | - |
| 1777716813 | 12.22° C | 95% | 1011.9 hPa | 0 mm | - | 0 W/m² | - |
| 1777716512 | 12.22° C | 95% | 1011.9 hPa | 0 mm | - | 0 W/m² | - |
| 1777716211 | 12.22° C | 95% | 1012.1 hPa | 0 mm | - | 0 W/m² | - |
| 1777715908 | 12.22° C | 95% | 1012 hPa | 0 mm | - | 0 W/m² | - |
| 1777715606 | 12.22° C | 95% | 1012 hPa | 0 mm | - | 0 W/m² | - |
| 1777715303 | 12.22° C | 95% | 1011.7 hPa | 0 mm | - | 0 W/m² | - |
| 1777714698 | 12.22° C | 95% | 1011.8 hPa | 0 mm | - | 0 W/m² | - |
* Rain latest hour (hover to see other rain measurements)
** Current wind speed in m/s (hover to see current wind gust speed)